Estación Meteorológica Peña el Pijo (Robertgarden) [ 07/15/20 05:36:17 CEST ]

Fecha Hora Presion(HPa) Temp (°C) Humedad % Rocio (°C) Viento ( m/s) Direccion Lluvia 1Hora(mm) Lluvia 24H(mm) LLuvia Total(mm)
2020-May-28 01:09:24 1016.300 - - - - W     39.88
2020-May-28 02:09:29 1016.400 - - - - W     39.88
2020-May-28 03:09:19 1016.000 - - - - W     39.88
2020-May-28 04:08:59 1015.700 - - - - W     39.88
2020-May-28 05:09:16 1015.400 - - - - W     39.88
2020-May-28 06:09:24 1015.300 - - - - W     39.88
2020-May-28 07:09:24 1015.300 - - - - W     39.88
2020-May-28 08:10:31 1015.300 - - - - W     39.88
2020-May-28 09:10:51 1015.200 - - - - W     39.88
2020-May-28 10:10:36 1015.100 - - - - W     39.88
2020-May-28 11:09:17 1014.700 - - - - W     39.88
2020-May-28 12:09:40 1014.400 - - - - W     39.88
2020-May-28 13:09:01 1014.400 - - - - W     39.88
2020-May-28 14:08:49 1014.000 - - - - W     39.88
2020-May-28 15:09:21 1013.400 - - - - W     39.88
2020-May-28 16:09:22 1012.600 - - - - W     39.88
2020-May-28 17:09:15 1012.600 - - - - W     39.88
2020-May-28 18:08:58 1012.200 - - - - W     39.88
2020-May-28 19:09:02 1012.100 - - - - W     39.88
2020-May-28 20:09:24 1012.100 - - - - W     39.88
2020-May-28 21:09:13 1012.300 - - - - W     39.88
2020-May-28 22:09:14 1012.800 - - - - W     39.88
2020-May-28 23:09:35 1013.400 - - - - W     39.88

Temperatura Máxima:    Temperatura Mínima:
Presión Máxima:1016.400 Hpa    Presión Mínima:1012.100 Hpa


Volver